| time (UTC) | temp F | wind direction | speed MPH | gust MPH | rain 1hr in | rain 24hr in | rain mn in | humidity % | barometer mb |
| 20260906154503 | 69 | 275 | 2.0 | 5.0 | 0.00 | 0.08 | 0.01 | 69 | 1016.6 |
| 20260906153005 | 69 | 285 | 3.0 | 7.0 | 0.00 | 0.08 | 0.01 | 68 | 1016.4 |
| 20260906151504 | 70 | 288 | 3.0 | 6.0 | 0.00 | 0.08 | 0.01 | 65 | 1016.4 |
| 20260906143004 | 71 | 279 | 3.0 | 5.0 | 0.00 | 0.08 | 0.01 | 63 | 1016.6 |
| 20260906133004 | 69 | 280 | 1.0 | 5.0 | 0.00 | 0.08 | 0.01 | 68 | 1016.4 |
| 20260906123005 | 68 | 288 | 3.0 | 9.0 | 0.00 | 0.08 | 0.01 | 70 | 1016.2 |
| 20260906120005 | 68 | 298 | 1.0 | 5.0 | 0.00 | 0.08 | 0.01 | 71 | 1016.2 |
| 20260906114504 | 68 | 279 | 1.0 | 7.0 | 0.00 | 0.08 | 0.01 | 71 | 1016.1 |
| 20260906111505 | 67 | 280 | 5.0 | 8.0 | 0.00 | 0.08 | 0.01 | 70 | 1016.1 |
| 20260906104504 | 66 | 294 | 3.0 | 8.0 | 0.00 | 0.09 | 0.01 | 74 | 1015.9 |
| 20260906093004 | 63 | 246 | 0.0 | 6.0 | 0.00 | 0.11 | 0.01 | 80 | 1015.2 |
| 20260906091503 | 63 | 269 | 3.0 | 7.0 | 0.00 | 0.11 | 0.01 | 78 | 1015.2 |
| 20260906083005 | 61 | 279 | 3.0 | 9.0 | 0.00 | 0.11 | 0.01 | 82 | 1015.2 |
| 20260906081504 | 60 | 270 | 3.0 | 8.0 | 0.00 | 0.11 | 0.01 | 84 | 1014.8 |
| 20260906074504 | 59 | 266 | 3.0 | 6.0 | 0.00 | 0.11 | 0.01 | 85 | 1014.8 |
| 20260906073005 | 59 | 279 | 2.0 | 5.0 | 0.00 | 0.11 | 0.01 | 85 | 1014.4 |
| 20260906053004 | 55 | 277 | 3.0 | 7.0 | 0.00 | 0.11 | 0.01 | 91 | 1012.0 |
| 20260906051504 | 55 | 287 | 4.0 | 8.0 | 0.00 | 0.11 | 0.01 | 91 | 1012.0 |
| 20260906050004 | 55 | 287 | 4.0 | 8.0 | 0.00 | 0.11 | 0.01 | 91 | 1012.0 |
| 20260906044504 | 55 | 289 | 4.0 | 6.0 | 0.00 | 0.11 | 0.01 | 91 | 1012.0 |
| 20260906043004 | 54 | 286 | 2.0 | 6.0 | 0.00 | 0.11 | 0.01 | 92 | 1012.0 |
| 20260906034504 | 55 | 310 | 3.0 | 9.0 | 0.00 | 0.11 | 0.01 | 92 | 1011.1 |
| 20260906033006 | 55 | 300 | 3.0 | 9.0 | 0.00 | 0.11 | 0.01 | 92 | 1010.9 |
| 20260906024504 | 55 | 306 | 3.0 | 10.0 | 0.01 | 0.11 | 0.01 | 91 | 1010.2 |
| 20260906023005 | 55 | 334 | 3.0 | 9.0 | 0.01 | 0.11 | 0.01 | 91 | 1009.1 |
| 20260906021504 | 55 | 318 | 3.0 | 7.0 | 0.01 | 0.11 | 0.01 | 91 | 1009.1 |
| 20260906013005 | 55 | 300 | 4.0 | 9.0 | 0.00 | 0.10 | 0.00 | 91 | 1009.1 |
| 20260906001504 | 55 | 315 | 3.0 | 8.0 | 0.00 | 0.11 | 0.00 | 91 | 1007.8 |
| 20260905234504 | 56 | 320 | 4.0 | 8.0 | 0.00 | 0.11 | 0.00 | 90 | 1006.5 |
| 20260905221504 | 57 | 284 | 6.0 | 12.0 | 0.00 | 0.11 | 0.00 | 90 | 1005.3 |
| 20260905220004 | 57 | 281 | 5.0 | 8.0 | 0.00 | 0.11 | 0.00 | 90 | 1005.3 |
| 20260905214504 | 57 | 260 | 3.0 | 8.0 | 0.00 | 0.11 | 0.11 | 90 | 1005.3 |
| 20260905210004 | 57 | 223 | 4.0 | 10.0 | 0.00 | 0.11 | 0.11 | 88 | 1005.0 |
| 20260905204504 | 58 | 254 | 3.0 | 8.0 | 0.00 | 0.11 | 0.11 | 88 | 1004.9 |
| 20260905200004 | 58 | 219 | 2.0 | 12.0 | 0.00 | 0.11 | 0.11 | 87 | 1004.6 |
| 20260905184504 | 58 | 264 | 6.0 | 12.0 | 0.02 | 0.11 | 0.11 | 87 | 1004.6 |
| 20260905183004 | 58 | 276 | 3.0 | 10.0 | 0.02 | 0.11 | 0.11 | 86 | 1004.3 |
| 20260905181504 | 58 | 262 | 3.0 | 10.0 | 0.04 | 0.12 | 0.11 | 87 | 1004.3 |
| 20260905174504 | 58 | 266 | 4.0 | 12.0 | 0.06 | 0.10 | 0.09 | 84 | 1004.3 |
| 20260905173005 | 59 | 284 | 7.0 | 14.0 | 0.05 | 0.09 | 0.09 | 83 | 1004.3 |
| 20260905170004 | 62 | 287 | 7.0 | 12.0 | 0.01 | 0.09 | 0.05 | 79 | 1003.9 |
| 20260905163004 | 63 | 284 | 9.0 | 12.0 | 0.00 | 0.12 | 0.04 | 74 | 1002.9 |
| 20260905160005 | 64 | 286 | 6.0 | 12.0 | 0.00 | 0.14 | 0.04 | 75 | 1002.5 |